This is the latest recevied weather packets stored in our database for station/object K4AVM-13. If no packets are shown the sender has not sent any weather packets the latest 10 day(s).
| Time | Temp. | Humidity | Pressure | Rain* | Wind** | Luminosity | Snow |
|---|---|---|---|---|---|---|---|
| 1778003960 | 28.33° C | 35% | 1014.7 hPa | 0 mm | - | 676 W/m² | - |
| 1778003656 | 28.89° C | 34% | 1014.7 hPa | 0 mm | - | 686 W/m² | - |
| 1778003353 | 28.89° C | 33% | 1014.7 hPa | 0 mm | - | 689 W/m² | - |
| 1778003051 | 28.33° C | 35% | 1014.8 hPa | 0 mm | - | 695 W/m² | - |
| 1778002746 | 28.89° C | 37% | 1014.9 hPa | 0 mm | - | 695 W/m² | - |
| 1778002443 | 28.33° C | 36% | 1014.9 hPa | 0 mm | - | 698 W/m² | - |
| 1778002140 | 27.78° C | 38% | 1015 hPa | 0 mm | - | 697 W/m² | - |
| 1778001838 | 28.89° C | 38% | 1015 hPa | 0 mm | - | 698 W/m² | - |
| 1778001537 | 27.78° C | 40% | 1015.2 hPa | 0 mm | - | 706 W/m² | - |
| 1778001234 | 27.78° C | 42% | 1015.1 hPa | 0 mm | - | 705 W/m² | - |
| 1778000931 | 28.33° C | 40% | 1015.2 hPa | 0 mm | - | 701 W/m² | - |
| 1778000628 | 27.78° C | 42% | 1015.1 hPa | 0 mm | - | 703 W/m² | - |
| 1778000323 | 27.78° C | 40% | 1015.2 hPa | 0 mm | - | 700 W/m² | - |
| 1778000019 | 27.78° C | 42% | 1015.3 hPa | 0 mm | - | 700 W/m² | - |
| 1777999715 | 27.78° C | 41% | 1015.3 hPa | 0 mm | - | 696 W/m² | - |
| 1777999412 | 27.22° C | 42% | 1015.5 hPa | 0 mm | - | 698 W/m² | - |
| 1777999110 | 26.67° C | 42% | 1015.3 hPa | 0 mm | - | 696 W/m² | - |
| 1777998808 | 27.22° C | 44% | 1015.3 hPa | 0 mm | - | 692 W/m² | - |
| 1777998507 | 27.22° C | 42% | 1015.5 hPa | 0 mm | - | 688 W/m² | - |
| 1777998202 | 27.22° C | 42% | 1015.5 hPa | 0 mm | - | 687 W/m² | - |
| 1777997900 | 26.67° C | 44% | 1015.8 hPa | 0 mm | - | 681 W/m² | - |
| 1777997597 | 26.67° C | 45% | 1015.9 hPa | 0 mm | - | 679 W/m² | - |
| 1777997294 | 26.11° C | 46% | 1015.8 hPa | 0 mm | - | 674 W/m² | - |
| 1777996992 | 26.11° C | 46% | 1016.1 hPa | 0 mm | - | 670 W/m² | - |
| 1777996688 | 26.67° C | 45% | 1016.2 hPa | 0 mm | - | 664 W/m² | - |
* Rain latest hour (hover to see other rain measurements)
** Current wind speed in m/s (hover to see current wind gust speed)